Weather in Zarbdar

Uzbekistan     40°05′15″N   68°09′51″E
temp.,
°C
wind,
m/s
gust,
m/s
humid.,
%
clouds,
%
prec.,
mm/h
press.,
hPa
HPBL,
m
15 august, mon
mon1523:00+28ssw33200 0.0 100214
02:00+26sw22240 0.0 100212
05:00+25wsw22250 0.0 100311
08:00+30wnw22181 0.0 1004252
11:00+35nnw32135 0.0 10031135
14:00+38nnw33114 0.0 10022196
17:00+39nw53100 0.0 10013365
20:00+31nw11165 0.0 100211
16 august, tue
tue1623:00+29w22170 0.0 100311
02:00+27wsw33200 0.0 100424
05:00+26wsw22230 0.0 100512
08:00+30wnw33190 0.0 1006315
11:00+35nw44150 0.0 10051129
14:00+38n43120 0.0 10033050
17:00+38nnw74110 0.0 10023705
20:00+30nnw12180 0.0 100418
17 august, wed
wed1723:00+29ssw33190 0.0 100512
02:00+27wsw22220 0.0 100512
05:00+24w33270 0.0 100631
08:00+27wnw45240 0.0 1007367
11:00+32nw44160 0.0 10061179
14:00+36nnw43120 0.0 10042210
17:00+36nnw64100 0.0 10032581
20:00+28w33130 0.0 100517
18 august, thu
thu1823:00+26wsw46150 0.0 100684
02:00+23w45160 0.0 100665
05:00+21wsw34180 0.0 100736
08:00+24wnw44160 0.0 1008415
11:00+29nw44130 0.0 10071010
14:00+33nw44110 0.0 10051640
17:00+34nw4490 0.0 10041940
20:00+27wsw33130 0.0 100522
19 august, fri
fri1923:00+25wsw58150 0.0 1006142
02:00+22wsw47190 0.0 1007124
05:00+20wsw44230 0.0 100850
08:00+22wnw56230 0.0 1009566
11:00+28nw55160 0.0 10091145
14:00+33nw34100 0.0 10072078
17:00+33n5490 0.0 10062555
20:00+25nnw22190 0.0 100935